Time,TemperatureF,DewpointF,PressureIn,WindDirection,WindDirectionDegrees,WindSpeedMPH,WindSpeedGustMPH,Humidity,HourlyPrecipIn,Conditions,Clouds,dailyrainin,SoftwareType,DateUTC
2013-08-31 00:01:00,72.9,67.8,29.96,SE,125,0.0,0.0,84,0.00,,,0.00,meteohub,2013-08-31 04:01:00,
2013-08-31 00:02:00,72.9,67.8,29.96,SE,125,0.0,0.0,84,0.00,,,0.00,meteohub,2013-08-31 04:02:00,
2013-08-31 00:08:00,72.9,68.0,29.96,SE,125,0.0,0.0,85,0.00,,,0.00,meteohub,2013-08-31 04:08:00,
2013-08-31 00:13:00,72.7,67.8,29.96,SE,125,0.0,0.0,85,0.00,,,0.00,meteohub,2013-08-31 04:13:00,
2013-08-31 00:18:00,72.7,67.8,29.96,SE,125,0.0,0.0,85,0.00,,,0.00,meteohub,2013-08-31 04:18:00,
2013-08-31 00:23:00,72.5,67.8,29.96,SE,125,0.0,0.0,85,0.00,,,0.00,meteohub,2013-08-31 04:23:00,
2013-08-31 00:28:00,72.3,67.6,29.96,SE,125,0.0,0.0,85,0.00,,,0.00,meteohub,2013-08-31 04:28:00,
2013-08-31 00:34:00,72.3,67.6,29.96,SE,125,0.0,0.0,85,0.00,,,0.00,meteohub,2013-08-31 04:34:00,
2013-08-31 00:39:00,72.3,67.3,29.95,SE,125,0.0,0.0,84,0.00,,,0.00,meteohub,2013-08-31 04:39:00,
2013-08-31 00:44:00,72.1,67.1,29.95,SE,125,0.0,0.0,84,0.00,,,0.00,meteohub,2013-08-31 04:44:00,
2013-08-31 00:49:00,72.1,67.1,29.95,SE,125,0.0,0.0,84,0.00,,,0.00,meteohub,2013-08-31 04:49:00,
2013-08-31 00:55:00,72.0,66.9,29.95,SE,125,0.0,0.0,84,0.00,,,0.00,meteohub,2013-08-31 04:55:00,
2013-08-31 01:00:00,72.0,66.9,29.95,SE,125,0.0,0.0,84,0.00,,,0.00,meteohub,2013-08-31 05:00:00,
2013-08-31 01:05:00,72.0,66.9,29.95,SE,125,0.0,0.0,84,0.00,,,0.00,meteohub,2013-08-31 05:05:00,
2013-08-31 01:10:00,72.0,66.9,29.95,SE,125,0.0,0.0,84,0.00,,,0.00,meteohub,2013-08-31 05:10:00,
2013-08-31 01:15:00,72.0,66.9,29.95,SE,125,0.0,0.0,84,0.00,,,0.00,meteohub,2013-08-31 05:15:00,
2013-08-31 01:21:00,71.8,66.7,29.95,SE,125,0.0,0.0,84,0.00,,,0.00,meteohub,2013-08-31 05:21:00,
2013-08-31 01:26:00,71.8,66.7,29.95,SE,125,0.0,0.0,84,0.00,,,0.00,meteohub,2013-08-31 05:26:00,
2013-08-31 01:31:00,71.8,66.7,29.95,SE,125,0.0,0.0,84,0.00,,,0.00,meteohub,2013-08-31 05:31:00,
2013-08-31 01:36:00,71.6,66.6,29.95,East,82,0.0,0.0,84,0.00,,,0.00,meteohub,2013-08-31 05:36:00,
2013-08-31 01:41:00,71.6,66.6,29.95,West,281,0.0,1.0,84,0.00,,,0.00,meteohub,2013-08-31 05:41:00,
2013-08-31 01:46:00,71.4,66.4,29.95,West,281,0.0,1.0,84,0.00,,,0.00,meteohub,2013-08-31 05:46:00,
2013-08-31 01:52:00,71.4,66.4,29.95,West,281,0.0,1.0,84,0.00,,,0.00,meteohub,2013-08-31 05:52:00,
2013-08-31 01:57:00,71.4,66.4,29.95,West,281,0.0,0.0,84,0.00,,,0.00,meteohub,2013-08-31 05:57:00,
2013-08-31 02:02:00,71.4,66.4,29.95,West,281,0.0,0.0,84,0.00,,,0.00,meteohub,2013-08-31 06:02:00,
2013-08-31 02:07:00,71.4,66.7,29.95,West,281,0.0,0.0,85,0.00,,,0.00,meteohub,2013-08-31 06:07:00,
2013-08-31 02:12:00,71.4,66.7,29.95,West,281,0.0,0.0,85,0.00,,,0.00,meteohub,2013-08-31 06:12:00,
2013-08-31 02:17:00,71.4,66.7,29.95,West,281,0.0,0.0,85,0.00,,,0.00,meteohub,2013-08-31 06:17:00,
2013-08-31 02:22:00,71.2,66.6,29.95,West,281,0.0,0.0,85,0.00,,,0.00,meteohub,2013-08-31 06:22:00,
2013-08-31 02:27:00,71.2,66.6,29.94,WSW,242,0.0,0.0,85,0.00,,,0.00,meteohub,2013-08-31 06:27:00,
2013-08-31 02:32:00,71.1,66.7,29.95,SW,223,0.0,1.0,86,0.00,,,0.00,meteohub,2013-08-31 06:32:00,
2013-08-31 02:37:00,70.9,66.6,29.94,SSW,206,0.0,1.0,86,0.00,,,0.00,meteohub,2013-08-31 06:37:00,
2013-08-31 02:42:00,70.9,66.6,29.94,SSW,206,0.0,1.0,86,0.00,,,0.00,meteohub,2013-08-31 06:42:00,
2013-08-31 02:47:00,70.5,66.4,29.94,SSW,206,0.0,1.0,87,0.00,,,0.00,meteohub,2013-08-31 06:47:00,
2013-08-31 02:52:00,70.3,66.2,29.94,SSW,206,0.0,1.0,87,0.00,,,0.00,meteohub,2013-08-31 06:52:00,
2013-08-31 02:57:00,70.3,66.2,29.94,SSW,206,0.0,1.0,87,0.00,,,0.00,meteohub,2013-08-31 06:57:00,
2013-08-31 03:02:00,70.2,66.4,29.94,SSW,206,0.0,0.0,88,0.00,,,0.00,meteohub,2013-08-31 07:02:00,
2013-08-31 03:07:00,70.0,66.2,29.94,SSW,206,0.0,0.0,88,0.00,,,0.00,meteohub,2013-08-31 07:07:00,
2013-08-31 03:12:00,70.0,66.2,29.94,SSW,206,0.0,0.0,88,0.00,,,0.00,meteohub,2013-08-31 07:12:00,
2013-08-31 03:17:00,69.6,66.2,29.94,SSW,206,0.0,0.0,89,0.00,,,0.00,meteohub,2013-08-31 07:17:00,
2013-08-31 03:22:00,69.6,66.2,29.94,NNW,344,0.0,0.0,89,0.00,,,0.00,meteohub,2013-08-31 07:22:00,
2013-08-31 03:27:00,69.6,66.2,29.94,NNW,344,0.0,1.0,89,0.00,,,0.00,meteohub,2013-08-31 07:27:00,
2013-08-31 03:32:00,69.6,66.2,29.94,NNW,344,0.0,1.0,89,0.00,,,0.00,meteohub,2013-08-31 07:32:00,
2013-08-31 03:37:00,69.6,66.2,29.94,NNW,344,0.0,1.0,89,0.00,,,0.00,meteohub,2013-08-31 07:37:00,
2013-08-31 03:42:00,69.6,66.2,29.94,NNW,344,0.0,0.0,89,0.00,,,0.00,meteohub,2013-08-31 07:42:00,
2013-08-31 03:47:00,69.4,66.0,29.94,NNW,344,0.0,0.0,89,0.00,,,0.00,meteohub,2013-08-31 07:47:00,
2013-08-31 03:52:00,69.4,66.0,29.94,NNW,344,0.0,0.0,89,0.00,,,0.00,meteohub,2013-08-31 07:52:00,
2013-08-31 03:57:00,69.4,66.0,29.94,NNW,344,0.0,0.0,89,0.00,,,0.00,meteohub,2013-08-31 07:57:00,
2013-08-31 04:02:00,69.4,66.4,29.94,NNW,344,0.0,0.0,90,0.00,,,0.00,meteohub,2013-08-31 08:02:00,
2013-08-31 04:07:00,69.3,66.2,29.94,NNW,344,0.0,0.0,90,0.00,,,0.00,meteohub,2013-08-31 08:07:00,
2013-08-31 04:12:00,69.3,66.2,29.94,NNW,344,0.0,0.0,90,0.00,,,0.00,meteohub,2013-08-31 08:12:00,
2013-08-31 04:17:00,69.3,66.6,29.94,NNW,344,0.0,0.0,91,0.00,,,0.00,meteohub,2013-08-31 08:17:00,
2013-08-31 04:22:00,69.3,66.6,29.94,NNW,344,0.0,0.0,91,0.00,,,0.00,meteohub,2013-08-31 08:22:00,
2013-08-31 04:27:00,69.3,66.6,29.94,NNW,344,0.0,0.0,91,0.00,,,0.00,meteohub,2013-08-31 08:27:00,
2013-08-31 04:32:00,69.3,66.6,29.94,NNW,344,0.0,0.0,91,0.00,,,0.00,meteohub,2013-08-31 08:32:00,
2013-08-31 04:37:00,69.1,66.4,29.94,NNW,344,0.0,0.0,91,0.00,,,0.00,meteohub,2013-08-31 08:37:00,
2013-08-31 04:42:00,69.1,66.4,29.94,NNW,344,0.0,0.0,91,0.00,,,0.00,meteohub,2013-08-31 08:42:00,
2013-08-31 04:47:00,69.1,66.4,29.94,NNW,344,0.0,0.0,91,0.00,,,0.00,meteohub,2013-08-31 08:47:00,
2013-08-31 04:52:00,69.1,66.4,29.94,NNW,344,0.0,0.0,91,0.00,,,0.00,meteohub,2013-08-31 08:52:00,
2013-08-31 04:57:00,69.1,66.7,29.94,NNW,344,0.0,0.0,92,0.00,,,0.00,meteohub,2013-08-31 08:57:00,
2013-08-31 05:02:00,69.1,66.7,29.94,NNW,344,0.0,0.0,92,0.00,,,0.00,meteohub,2013-08-31 09:02:00,
2013-08-31 05:07:00,69.1,66.7,29.94,NNW,344,0.0,0.0,92,0.00,,,0.00,meteohub,2013-08-31 09:07:00,
2013-08-31 05:12:00,69.1,66.9,29.94,NNW,344,0.0,0.0,93,0.00,,,0.00,meteohub,2013-08-31 09:12:00,
2013-08-31 05:17:00,68.9,66.7,29.94,NNW,344,0.0,0.0,93,0.00,,,0.00,meteohub,2013-08-31 09:17:00,
2013-08-31 05:22:00,68.9,66.7,29.94,NNW,344,0.0,0.0,93,0.00,,,0.00,meteohub,2013-08-31 09:22:00,
2013-08-31 05:27:00,68.9,66.7,29.94,NNW,344,0.0,0.0,93,0.00,,,0.00,meteohub,2013-08-31 09:27:00,
2013-08-31 05:32:00,68.7,66.6,29.94,NNW,344,0.0,0.0,93,0.00,,,0.00,meteohub,2013-08-31 09:32:00,
2013-08-31 05:37:00,68.7,66.6,29.94,NNW,344,0.0,0.0,93,0.00,,,0.00,meteohub,2013-08-31 09:37:00,
2013-08-31 05:42:00,68.7,66.6,29.93,NNW,344,0.0,0.0,93,0.00,,,0.00,meteohub,2013-08-31 09:42:00,
2013-08-31 05:47:00,68.5,66.4,29.93,NNW,344,0.0,0.0,93,0.00,,,0.00,meteohub,2013-08-31 09:47:00,
2013-08-31 05:52:00,68.5,66.4,29.93,NNW,344,0.0,0.0,93,0.00,,,0.00,meteohub,2013-08-31 09:52:00,
2013-08-31 05:57:00,68.5,66.4,29.94,NNW,344,0.0,0.0,93,0.00,,,0.00,meteohub,2013-08-31 09:57:00,
2013-08-31 06:02:00,68.4,66.6,29.94,NNW,344,0.0,0.0,94,0.00,,,0.00,meteohub,2013-08-31 10:02:00,
2013-08-31 06:07:00,68.4,66.6,29.94,NNW,344,0.0,0.0,94,0.00,,,0.00,meteohub,2013-08-31 10:07:00,
2013-08-31 06:12:00,68.4,66.6,29.94,NNW,344,0.0,0.0,94,0.00,,,0.00,meteohub,2013-08-31 10:12:00,
2013-08-31 06:17:00,68.4,66.6,29.94,NNW,344,0.0,0.0,94,0.00,,,0.00,meteohub,2013-08-31 10:17:00,
2013-08-31 06:22:00,68.4,66.6,29.94,NNW,344,0.0,0.0,94,0.00,,,0.00,meteohub,2013-08-31 10:22:00,
2013-08-31 06:27:00,68.2,66.7,29.94,NNW,344,0.0,0.0,95,0.00,,,0.00,meteohub,2013-08-31 10:27:00,
2013-08-31 06:32:00,68.2,66.7,29.94,NNW,344,0.0,0.0,95,0.00,,,0.00,meteohub,2013-08-31 10:32:00,
2013-08-31 06:37:00,68.2,66.7,29.94,NNW,344,0.0,0.0,95,0.00,,,0.00,meteohub,2013-08-31 10:37:00,
2013-08-31 06:42:00,68.2,66.7,29.94,NNW,344,0.0,0.0,95,0.00,,,0.00,meteohub,2013-08-31 10:42:00,
2013-08-31 06:47:00,68.2,66.9,29.94,NNW,344,0.0,0.0,96,0.00,,,0.00,meteohub,2013-08-31 10:47:00,
2013-08-31 06:52:00,68.2,66.9,29.94,NNW,344,0.0,0.0,96,0.00,,,0.00,meteohub,2013-08-31 10:52:00,
2013-08-31 06:57:00,68.2,66.9,29.94,NNW,344,0.0,0.0,96,0.00,,,0.00,meteohub,2013-08-31 10:57:00,
2013-08-31 07:02:00,68.2,66.9,29.94,NNW,344,0.0,0.0,96,0.00,,,0.00,meteohub,2013-08-31 11:02:00,
2013-08-31 07:07:00,68.2,66.9,29.94,NNW,344,0.0,0.0,96,0.00,,,0.00,meteohub,2013-08-31 11:07:00,
2013-08-31 07:12:00,68.2,66.9,29.94,NNW,344,0.0,0.0,96,0.00,,,0.00,meteohub,2013-08-31 11:12:00,
2013-08-31 07:17:00,68.2,66.9,29.94,NNW,344,0.0,0.0,96,0.00,,,0.00,meteohub,2013-08-31 11:17:00,
2013-08-31 07:22:00,68.2,66.9,29.94,NNW,344,0.0,0.0,96,0.00,,,0.00,meteohub,2013-08-31 11:22:00,
2013-08-31 07:27:00,68.2,67.3,29.94,NNW,344,0.0,0.0,97,0.00,,,0.00,meteohub,2013-08-31 11:27:00,
2013-08-31 07:32:00,68.4,67.5,29.94,NNW,344,0.0,0.0,97,0.00,,,0.00,meteohub,2013-08-31 11:32:00,
2013-08-31 07:37:00,68.4,67.5,29.94,NNW,344,0.0,0.0,97,0.00,,,0.00,meteohub,2013-08-31 11:37:00,
2013-08-31 07:42:00,68.4,67.5,29.95,NNW,344,0.0,0.0,97,0.00,,,0.00,meteohub,2013-08-31 11:42:00,
2013-08-31 07:47:00,68.5,68.0,29.95,NNW,344,0.0,0.0,98,0.00,,,0.00,meteohub,2013-08-31 11:47:00,
2013-08-31 07:52:00,68.5,68.0,29.94,NNW,344,0.0,0.0,98,0.00,,,0.00,meteohub,2013-08-31 11:52:00,
2013-08-31 07:57:00,68.5,68.0,29.95,NNW,338,0.0,0.0,98,0.00,,,0.00,meteohub,2013-08-31 11:57:00,
2013-08-31 08:02:00,68.7,68.2,29.95,NNW,338,0.0,0.0,98,0.00,,,0.00,meteohub,2013-08-31 12:02:00,
2013-08-31 08:07:00,68.9,68.4,29.95,NNW,338,0.0,0.0,98,0.00,,,0.00,meteohub,2013-08-31 12:07:00,
2013-08-31 08:12:00,69.1,68.5,29.95,SW,221,0.0,0.0,98,0.00,,,0.00,meteohub,2013-08-31 12:12:00,
2013-08-31 08:17:00,69.1,68.5,29.95,WSW,244,0.0,1.0,98,0.00,,,0.00,meteohub,2013-08-31 12:17:00,
2013-08-31 08:22:00,69.3,68.7,29.95,WSW,246,0.0,1.0,98,0.00,,,0.00,meteohub,2013-08-31 12:22:00,
2013-08-31 08:27:00,69.4,68.9,29.95,WSW,246,0.0,1.0,98,0.00,,,0.00,meteohub,2013-08-31 12:27:00,
2013-08-31 08:32:00,69.6,69.1,29.95,WSW,242,0.0,1.0,98,0.00,,,0.00,meteohub,2013-08-31 12:32:00,
2013-08-31 08:37:00,70.0,69.4,29.95,WSW,240,0.0,2.0,98,0.00,,,0.00,meteohub,2013-08-31 12:37:00,
2013-08-31 08:42:00,70.0,69.4,29.95,WSW,240,0.0,2.0,98,0.00,,,0.00,meteohub,2013-08-31 12:42:00,
2013-08-31 08:47:00,70.2,69.6,29.95,WSW,242,0.0,2.0,98,0.00,,,0.00,meteohub,2013-08-31 12:47:00,
2013-08-31 08:52:00,70.3,69.4,29.95,NW,311,0.0,2.0,97,0.00,,,0.00,meteohub,2013-08-31 12:52:00,
2013-08-31 08:57:00,70.3,69.4,29.95,SW,233,0.0,3.0,97,0.00,,,0.00,meteohub,2013-08-31 12:57:00,
2013-08-31 09:02:00,70.5,69.6,29.95,SW,224,0.0,3.0,97,0.00,,,0.00,meteohub,2013-08-31 13:02:00,
2013-08-31 09:07:00,70.7,69.8,29.95,SW,227,1.0,2.0,97,0.00,,,0.00,meteohub,2013-08-31 13:07:00,
2013-08-31 09:12:00,70.9,70.0,29.95,SW,227,0.0,2.0,97,0.00,,,0.00,meteohub,2013-08-31 13:12:00,
2013-08-31 09:17:00,71.1,70.2,29.95,South,188,0.0,1.0,97,0.00,,,0.00,meteohub,2013-08-31 13:17:00,
2013-08-31 09:22:00,71.2,70.0,29.95,SW,225,0.0,2.0,96,0.00,,,0.00,meteohub,2013-08-31 13:22:00,
2013-08-31 09:27:00,71.4,70.2,29.95,SW,226,0.0,4.0,96,0.00,,,0.00,meteohub,2013-08-31 13:27:00,
2013-08-31 09:32:00,71.8,70.5,29.95,WSW,247,0.0,4.0,96,0.00,,,0.00,meteohub,2013-08-31 13:32:00,
2013-08-31 09:37:00,72.0,70.7,29.95,WSW,252,0.0,4.0,96,0.00,,,0.00,meteohub,2013-08-31 13:37:00,
2013-08-31 09:42:00,72.3,71.1,29.95,SW,218,0.0,3.0,96,0.00,,,0.00,meteohub,2013-08-31 13:42:00,
2013-08-31 09:47:00,72.7,71.2,29.96,South,175,0.0,3.0,95,0.00,,,0.00,meteohub,2013-08-31 13:47:00,
2013-08-31 09:52:00,74.3,71.4,29.96,WSW,247,0.0,2.0,91,0.00,,,0.00,meteohub,2013-08-31 13:52:00,
2013-08-31 09:57:00,75.0,72.0,29.96,West,271,0.0,3.0,90,0.00,,,0.00,meteohub,2013-08-31 13:57:00,
2013-08-31 10:02:00,75.6,72.1,29.96,West,267,0.0,3.0,89,0.00,,,0.00,meteohub,2013-08-31 14:02:00,
2013-08-31 10:07:00,75.7,72.3,29.96,WSW,248,0.0,3.0,89,0.00,,,0.00,meteohub,2013-08-31 14:07:00,
2013-08-31 10:12:00,75.9,72.1,29.96,WSW,242,0.0,3.0,88,0.00,,,0.00,meteohub,2013-08-31 14:12:00,
2013-08-31 10:17:00,76.5,72.3,29.96,ENE,71,0.0,3.0,87,0.00,,,0.00,meteohub,2013-08-31 14:17:00,
2013-08-31 10:22:00,76.6,71.8,29.96,ESE,104,0.0,3.0,85,0.00,,,0.00,meteohub,2013-08-31 14:22:00,
2013-08-31 10:27:00,77.0,72.5,29.96,SW,216,0.0,3.0,86,0.00,,,0.00,meteohub,2013-08-31 14:27:00,
2013-08-31 10:32:00,77.2,72.3,29.96,SSW,207,0.0,3.0,85,0.00,,,0.00,meteohub,2013-08-31 14:32:00,
2013-08-31 10:37:00,77.5,72.0,29.96,South,190,1.0,2.0,83,0.00,,,0.00,meteohub,2013-08-31 14:37:00,
2013-08-31 10:42:00,77.7,72.1,29.96,SW,227,0.0,2.0,83,0.00,,,0.00,meteohub,2013-08-31 14:42:00,
2013-08-31 10:47:00,78.1,72.5,29.96,West,276,2.0,3.0,83,0.00,,,0.00,meteohub,2013-08-31 14:47:00,
2013-08-31 10:52:00,78.4,72.5,29.96,West,276,0.0,3.0,82,0.00,,,0.00,meteohub,2013-08-31 14:52:00,
2013-08-31 10:57:00,78.6,73.0,29.96,West,265,0.0,3.0,83,0.00,,,0.00,meteohub,2013-08-31 14:57:00,
2013-08-31 11:02:00,78.4,72.5,29.96,West,266,1.0,2.0,82,0.00,,,0.00,meteohub,2013-08-31 15:02:00,
2013-08-31 11:07:00,78.3,72.3,29.96,SW,221,2.0,2.0,82,0.00,,,0.00,meteohub,2013-08-31 15:07:00,
2013-08-31 11:12:00,78.4,72.9,29.96,SE,140,0.0,3.0,83,0.00,,,0.00,meteohub,2013-08-31 15:12:00,
2013-08-31 11:17:00,79.0,73.0,29.96,ENE,68,1.0,3.0,82,0.00,,,0.00,meteohub,2013-08-31 15:17:00,
2013-08-31 11:22:00,79.2,72.9,29.96,SSW,200,1.0,3.0,81,0.00,,,0.00,meteohub,2013-08-31 15:22:00,
2013-08-31 11:27:00,79.3,72.7,29.96,SW,221,0.0,5.0,80,0.00,,,0.00,meteohub,2013-08-31 15:27:00,
2013-08-31 11:32:00,79.3,72.7,29.95,NNE,25,2.0,5.0,80,0.00,,,0.00,meteohub,2013-08-31 15:32:00,
2013-08-31 11:37:00,79.5,72.9,29.95,ESE,117,1.0,3.0,80,0.00,,,0.00,meteohub,2013-08-31 15:37:00,
2013-08-31 11:42:00,80.2,73.0,29.95,NW,314,0.0,5.0,79,0.00,,,0.00,meteohub,2013-08-31 15:42:00,
2013-08-31 11:47:00,80.6,73.0,29.95,ESE,119,0.0,5.0,78,0.00,,,0.00,meteohub,2013-08-31 15:47:00,
2013-08-31 11:52:00,80.6,73.0,29.95,South,187,0.0,4.0,78,0.00,,,0.00,meteohub,2013-08-31 15:52:00,
2013-08-31 11:57:00,80.1,72.5,29.94,SSW,206,0.0,4.0,78,0.00,,,0.00,meteohub,2013-08-31 15:57:00,
2013-08-31 12:02:00,80.2,73.0,29.95,SW,225,1.0,4.0,79,0.00,,,0.00,meteohub,2013-08-31 16:02:00,
2013-08-31 12:07:00,80.6,73.4,29.94,SW,225,0.0,3.0,79,0.00,,,0.00,meteohub,2013-08-31 16:07:00,
2013-08-31 12:12:00,80.8,72.9,29.94,East,82,0.0,2.0,77,0.00,,,0.00,meteohub,2013-08-31 16:12:00,
2013-08-31 12:17:00,80.8,72.9,29.94,WSW,245,2.0,6.0,77,0.00,,,0.00,meteohub,2013-08-31 16:17:00,
2013-08-31 12:22:00,81.1,72.1,29.94,SW,227,2.0,9.0,74,0.00,,,0.00,meteohub,2013-08-31 16:22:00,
2013-08-31 12:27:00,81.3,72.3,29.94,SSW,200,0.0,9.0,74,0.00,,,0.00,meteohub,2013-08-31 16:27:00,
2013-08-31 12:32:00,81.9,72.7,29.94,SW,227,1.0,9.0,74,0.00,,,0.00,meteohub,2013-08-31 16:32:00,
2013-08-31 12:37:00,81.9,72.7,29.94,WSW,240,3.0,4.0,74,0.00,,,0.00,meteohub,2013-08-31 16:37:00,
2013-08-31 12:42:00,81.7,73.4,29.94,WSW,253,1.0,4.0,76,0.00,,,0.00,meteohub,2013-08-31 16:42:00,
2013-08-31 12:47:00,81.7,73.4,29.94,West,277,0.0,4.0,76,0.00,,,0.00,meteohub,2013-08-31 16:47:00,
2013-08-31 12:52:00,81.3,72.7,29.94,WSW,237,0.0,4.0,75,0.00,,,0.00,meteohub,2013-08-31 16:52:00,
2013-08-31 12:57:00,81.3,73.0,29.93,SSW,213,0.0,4.0,76,0.00,,,0.00,meteohub,2013-08-31 16:57:00,
2013-08-31 13:02:00,81.9,72.3,29.93,WNW,290,2.0,4.0,73,0.00,,,0.00,meteohub,2013-08-31 17:02:00,
2013-08-31 13:07:00,82.0,72.5,29.92,ENE,63,2.0,4.0,73,0.00,,,0.00,meteohub,2013-08-31 17:07:00,
2013-08-31 13:12:00,82.6,72.7,29.92,SW,223,2.0,6.0,72,0.00,,,0.00,meteohub,2013-08-31 17:12:00,
2013-08-31 13:17:00,82.8,72.9,29.92,SSW,208,0.0,6.0,72,0.00,,,0.00,meteohub,2013-08-31 17:17:00,
2013-08-31 13:22:00,82.9,73.0,29.93,SW,230,0.0,6.0,72,0.00,,,0.00,meteohub,2013-08-31 17:22:00,
2013-08-31 13:27:00,82.9,73.0,29.93,SSW,198,0.0,5.0,72,0.00,,,0.00,meteohub,2013-08-31 17:27:00,
2013-08-31 13:32:00,83.3,72.1,29.93,West,261,2.0,5.0,69,0.00,,,0.00,meteohub,2013-08-31 17:32:00,
2013-08-31 13:37:00,83.1,71.4,29.93,SSW,193,2.0,4.0,68,0.00,,,0.00,meteohub,2013-08-31 17:37:00,
2013-08-31 13:42:00,82.8,72.0,29.93,ESE,104,1.0,4.0,70,0.00,,,0.00,meteohub,2013-08-31 17:42:00,
2013-08-31 13:47:00,82.6,72.1,29.93,West,277,3.0,4.0,71,0.00,,,0.00,meteohub,2013-08-31 17:47:00,
2013-08-31 13:52:00,82.8,72.3,29.92,ENE,77,0.0,3.0,71,0.00,,,0.00,meteohub,2013-08-31 17:52:00,
2013-08-31 13:57:00,83.5,73.6,29.92,SSW,196,0.0,3.0,72,0.00,,,0.00,meteohub,2013-08-31 17:57:00,
2013-08-31 14:02:00,83.5,72.3,29.92,WSW,254,0.0,3.0,69,0.00,,,0.00,meteohub,2013-08-31 18:02:00,
2013-08-31 14:07:00,83.5,71.8,29.92,West,275,2.0,3.0,68,0.00,,,0.00,meteohub,2013-08-31 18:07:00,
2013-08-31 14:12:00,83.5,71.4,29.91,SW,232,3.0,4.0,67,0.00,,,0.00,meteohub,2013-08-31 18:12:00,
2013-08-31 14:18:00,83.3,72.1,29.91,SE,130,0.0,5.0,69,0.00,,,0.00,meteohub,2013-08-31 18:18:00,
2013-08-31 14:23:00,83.5,72.3,29.91,North,355,0.0,5.0,69,0.00,,,0.00,meteohub,2013-08-31 18:23:00,
2013-08-31 14:28:00,83.8,72.5,29.90,North,355,0.0,5.0,69,0.00,,,0.00,meteohub,2013-08-31 18:28:00,
2013-08-31 14:33:00,83.8,71.8,29.90,WSW,248,5.0,5.0,67,0.00,,,0.00,meteohub,2013-08-31 18:33:00,
2013-08-31 14:42:00,83.8,72.1,29.90,SW,235,2.0,3.0,68,0.00,,,0.00,meteohub,2013-08-31 18:42:00,
2013-08-31 14:47:00,83.8,72.5,29.90,SW,223,0.0,3.0,69,0.00,,,0.00,meteohub,2013-08-31 18:47:00,
2013-08-31 14:52:00,83.8,72.5,29.90,SW,215,0.0,-999.0,69,0.00,,,0.00,meteohub,2013-08-31 18:52:00,
2013-08-31 14:57:00,84.0,72.7,29.90,SW,226,3.0,-999.0,69,0.00,,,0.00,meteohub,2013-08-31 18:57:00,
2013-08-31 15:02:00,84.4,72.7,29.89,WSW,241,0.0,-999.0,68,0.00,,,0.00,meteohub,2013-08-31 19:02:00,
2013-08-31 15:07:00,84.6,73.8,29.89,North,5,1.0,-999.0,70,0.00,,,0.00,meteohub,2013-08-31 19:07:00,
2013-08-31 15:12:00,84.7,72.5,29.89,SSW,196,1.0,-999.0,67,0.00,,,0.00,meteohub,2013-08-31 19:12:00,
2013-08-31 15:17:00,84.2,72.5,29.89,WSW,247,0.0,-999.0,68,0.00,,,0.00,meteohub,2013-08-31 19:17:00,
2013-08-31 15:22:00,83.7,72.9,29.88,WSW,247,0.0,-999.0,70,0.00,,,0.00,meteohub,2013-08-31 19:22:00,
2013-08-31 15:27:00,83.1,72.3,29.88,East,95,0.0,-999.0,70,0.00,,,0.00,meteohub,2013-08-31 19:27:00,
2013-08-31 15:32:00,83.1,73.2,29.88,SSW,205,0.0,-999.0,72,-99.99,,,0.00,meteohub,2013-08-31 19:32:00,
2013-08-31 15:37:00,83.1,73.6,29.88,SSW,197,0.0,-999.0,73,-99.99,,,0.00,meteohub,2013-08-31 19:37:00,
2013-08-31 15:42:00,83.5,73.0,29.88,West,269,0.0,5.0,71,0.00,,,0.00,meteohub,2013-08-31 19:42:00,
2013-08-31 15:47:00,83.3,72.9,29.87,South,183,0.0,-999.0,71,0.00,,,0.00,meteohub,2013-08-31 19:47:00,
2013-08-31 15:52:00,83.5,73.6,29.87,East,101,0.0,-999.0,72,0.00,,,0.00,meteohub,2013-08-31 19:52:00,
2013-08-31 15:57:00,83.5,73.6,29.87,NNW,345,1.0,-999.0,72,0.00,,,0.00,meteohub,2013-08-31 19:57:00,
2013-08-31 16:02:00,83.5,73.6,29.87,WNW,284,0.0,5.0,72,0.00,,,0.00,meteohub,2013-08-31 20:02:00,
2013-08-31 16:07:00,83.5,73.6,29.87,NE,55,0.0,5.0,72,0.00,,,0.00,meteohub,2013-08-31 20:07:00,
2013-08-31 16:12:00,83.7,73.2,29.86,SSW,202,0.0,5.0,71,0.00,,,0.00,meteohub,2013-08-31 20:12:00,
2013-08-31 16:17:00,83.5,72.7,29.86,SSW,211,1.0,-999.0,70,0.00,,,0.00,meteohub,2013-08-31 20:17:00,
2013-08-31 16:22:00,83.5,73.6,29.86,West,259,1.0,-999.0,72,0.00,,,0.00,meteohub,2013-08-31 20:22:00,
2013-08-31 16:27:00,83.8,73.8,29.86,West,273,0.0,-999.0,72,0.00,,,0.00,meteohub,2013-08-31 20:27:00,
2013-08-31 16:32:00,83.7,72.9,29.86,WSW,254,0.0,9.0,70,0.00,,,0.00,meteohub,2013-08-31 20:32:00,
2013-08-31 16:37:00,82.9,73.0,29.86,WSW,254,0.0,9.0,72,0.00,,,0.00,meteohub,2013-08-31 20:37:00,
2013-08-31 16:42:00,82.8,72.9,29.86,WSW,254,0.0,9.0,72,0.00,,,0.00,meteohub,2013-08-31 20:42:00,
2013-08-31 16:47:00,82.9,73.0,29.86,SW,236,0.0,-999.0,72,0.00,,,0.00,meteohub,2013-08-31 20:47:00,
2013-08-31 16:52:00,82.6,73.0,29.86,WSW,237,0.0,-999.0,73,0.00,,,0.00,meteohub,2013-08-31 20:52:00,
2013-08-31 16:57:00,82.8,73.2,29.86,WSW,237,0.0,-999.0,73,0.00,,,0.00,meteohub,2013-08-31 20:57:00,
2013-08-31 17:02:00,82.8,73.2,29.86,WSW,237,0.0,4.0,73,0.00,,,0.00,meteohub,2013-08-31 21:02:00,
2013-08-31 17:07:00,82.6,73.0,29.86,WSW,237,0.0,4.0,73,0.00,,,0.00,meteohub,2013-08-31 21:07:00,
2013-08-31 17:12:00,82.6,73.4,29.86,WSW,237,0.0,4.0,74,0.00,,,0.00,meteohub,2013-08-31 21:12:00,
2013-08-31 17:17:00,82.9,73.8,29.86,WSW,237,0.0,-999.0,74,0.00,,,0.00,meteohub,2013-08-31 21:17:00,
2013-08-31 17:22:00,82.9,73.4,29.87,WSW,237,0.0,-999.0,73,0.00,,,0.00,meteohub,2013-08-31 21:22:00,
2013-08-31 17:27:00,82.9,73.4,29.87,WSW,237,0.0,-999.0,73,0.00,,,0.00,meteohub,2013-08-31 21:27:00,
2013-08-31 17:32:00,82.6,73.0,29.86,WSW,237,0.0,6.0,73,0.00,,,0.00,meteohub,2013-08-31 21:32:00,
2013-08-31 17:37:00,82.6,73.8,29.86,WSW,237,0.0,6.0,75,0.00,,,0.00,meteohub,2013-08-31 21:37:00,
2013-08-31 17:42:00,82.8,73.6,29.87,WSW,251,0.0,6.0,74,0.00,,,0.00,meteohub,2013-08-31 21:42:00,
2013-08-31 17:47:00,82.8,73.9,29.87,WSW,250,0.0,-999.0,75,0.00,,,0.00,meteohub,2013-08-31 21:47:00,
2013-08-31 17:52:00,82.8,73.6,29.88,WSW,250,0.0,-999.0,74,0.00,,,0.00,meteohub,2013-08-31 21:52:00,
2013-08-31 17:57:00,82.6,73.4,29.88,NNW,327,0.0,-999.0,74,0.00,,,0.00,meteohub,2013-08-31 21:57:00,
2013-08-31 18:02:00,82.2,73.6,29.87,NNW,327,0.0,4.0,75,0.00,,,0.00,meteohub,2013-08-31 22:02:00,
2013-08-31 18:07:00,81.9,73.6,29.87,NNW,327,0.0,4.0,76,0.00,,,0.00,meteohub,2013-08-31 22:07:00,
2013-08-31 18:12:00,81.7,73.8,29.88,NNW,327,0.0,4.0,77,0.00,,,0.00,meteohub,2013-08-31 22:12:00,
2013-08-31 18:17:00,81.5,73.2,29.87,NNW,327,0.0,-999.0,76,0.00,,,0.00,meteohub,2013-08-31 22:17:00,
2013-08-31 18:22:00,81.3,73.4,29.87,NNW,327,0.0,-999.0,77,0.00,,,0.00,meteohub,2013-08-31 22:22:00,
2013-08-31 18:27:00,81.1,73.6,29.88,NNW,327,0.0,-999.0,78,0.00,,,0.00,meteohub,2013-08-31 22:27:00,
2013-08-31 18:32:00,81.0,73.4,29.87,NNW,327,0.0,5.0,78,0.00,,,0.00,meteohub,2013-08-31 22:32:00,
2013-08-31 18:37:00,80.8,73.6,29.88,NNW,327,0.0,5.0,79,0.00,,,0.00,meteohub,2013-08-31 22:37:00,
2013-08-31 18:42:00,80.6,73.4,29.87,NNW,327,0.0,5.0,79,0.00,,,0.00,meteohub,2013-08-31 22:42:00,
2013-08-31 18:47:00,80.4,73.2,29.87,NNW,327,0.0,2.0,79,0.00,,,0.00,meteohub,2013-08-31 22:47:00,
2013-08-31 18:52:00,80.2,73.0,29.87,NNW,327,0.0,0.0,79,0.00,,,0.00,meteohub,2013-08-31 22:52:00,
2013-08-31 18:57:00,80.2,73.0,29.87,NNW,327,0.0,0.0,79,0.00,,,0.00,meteohub,2013-08-31 22:57:00,
2013-08-31 19:02:00,80.1,73.0,29.87,NNW,327,0.0,0.0,79,0.00,,,0.00,meteohub,2013-08-31 23:02:00,
2013-08-31 19:07:00,80.1,73.0,29.87,NNW,327,0.0,0.0,79,0.00,,,0.00,meteohub,2013-08-31 23:07:00,
2013-08-31 19:12:00,80.1,73.4,29.87,NNW,327,0.0,0.0,80,0.00,,,0.00,meteohub,2013-08-31 23:12:00,
2013-08-31 19:17:00,79.9,73.2,29.87,NNW,327,0.0,0.0,80,0.00,,,0.00,meteohub,2013-08-31 23:17:00,
2013-08-31 19:22:00,79.9,73.2,29.87,NNW,327,0.0,0.0,80,0.00,,,0.00,meteohub,2013-08-31 23:22:00,
2013-08-31 19:27:00,79.7,73.4,29.86,NNW,327,0.0,0.0,81,0.00,,,0.00,meteohub,2013-08-31 23:27:00,
2013-08-31 19:32:00,79.7,73.4,29.86,NNW,327,0.0,0.0,81,0.00,,,0.00,meteohub,2013-08-31 23:32:00,
2013-08-31 19:37:00,79.9,73.6,29.85,NNW,327,0.0,0.0,81,0.00,,,0.00,meteohub,2013-08-31 23:37:00,
2013-08-31 19:42:00,79.7,73.0,29.86,NNW,327,0.0,0.0,80,0.00,,,0.00,meteohub,2013-08-31 23:42:00,
2013-08-31 19:47:00,79.7,73.0,29.86,NNW,327,0.0,0.0,80,0.00,,,0.00,meteohub,2013-08-31 23:47:00,
2013-08-31 19:52:00,79.5,72.9,29.86,NNW,327,0.0,0.0,80,0.00,,,0.00,meteohub,2013-08-31 23:52:00,
2013-08-31 19:57:00,79.5,73.2,29.87,NNW,327,0.0,0.0,81,0.00,,,0.00,meteohub,2013-08-31 23:57:00,
2013-08-31 20:02:00,79.5,73.2,29.87,NNW,327,0.0,0.0,81,0.00,,,0.00,meteohub,2013-09-01 00:02:00,
2013-08-31 20:07:00,79.3,73.8,29.87,NNW,327,0.0,0.0,83,0.00,,,0.00,meteohub,2013-09-01 00:07:00,
2013-08-31 20:12:00,79.2,72.9,29.87,NNW,327,0.0,0.0,81,0.00,,,0.00,meteohub,2013-09-01 00:12:00,
2013-08-31 20:17:00,79.2,73.2,29.87,NNW,327,0.0,0.0,82,0.00,,,0.00,meteohub,2013-09-01 00:17:00,
2013-08-31 20:22:00,79.0,73.0,29.88,NNW,327,0.0,0.0,82,0.00,,,0.00,meteohub,2013-09-01 00:22:00,
2013-08-31 20:27:00,79.0,73.0,29.88,NNW,327,0.0,0.0,82,0.00,,,0.00,meteohub,2013-09-01 00:27:00,
2013-08-31 20:32:00,79.0,72.7,29.88,NNW,327,0.0,0.0,81,0.00,,,0.00,meteohub,2013-09-01 00:32:00,
2013-08-31 20:37:00,78.6,72.3,29.88,NNW,327,0.0,0.0,81,0.00,,,0.00,meteohub,2013-09-01 00:37:00,
2013-08-31 20:42:00,78.6,72.3,29.88,NNW,327,0.0,0.0,81,0.00,,,0.00,meteohub,2013-09-01 00:42:00,
2013-08-31 20:47:00,78.6,72.7,29.88,NNW,327,0.0,0.0,82,0.00,,,0.00,meteohub,2013-09-01 00:47:00,
2013-08-31 20:52:00,78.6,72.7,29.88,NNW,327,0.0,0.0,82,0.00,,,0.00,meteohub,2013-09-01 00:52:00,
2013-08-31 20:57:00,78.4,72.5,29.89,NNW,327,0.0,0.0,82,0.00,,,0.00,meteohub,2013-09-01 00:57:00,
2013-08-31 21:02:00,78.4,72.9,29.91,NW,313,3.0,0.0,83,0.00,,,0.00,meteohub,2013-09-01 01:02:00,
2013-08-31 21:07:00,78.3,72.7,29.91,NW,306,3.0,4.0,83,0.00,,,0.00,meteohub,2013-09-01 01:07:00,
2013-08-31 21:12:00,77.7,72.5,29.91,NW,306,4.0,5.0,84,0.00,,,0.00,meteohub,2013-09-01 01:12:00,
2013-08-31 21:17:00,77.4,72.5,29.91,NW,311,2.0,9.0,85,0.00,,,0.00,meteohub,2013-09-01 01:17:00,
2013-08-31 21:22:00,76.6,72.5,29.90,NNW,341,2.0,9.0,87,0.01,,,0.01,meteohub,2013-09-01 01:22:00,
2013-08-31 21:27:00,75.6,71.8,29.90,NW,323,3.0,9.0,88,0.03,,,0.03,meteohub,2013-09-01 01:27:00,
2013-08-31 21:32:00,74.8,71.4,29.90,NW,323,1.0,4.0,89,0.03,,,0.03,meteohub,2013-09-01 01:32:00,
2013-08-31 21:37:00,74.7,71.2,29.90,NW,323,0.0,4.0,89,0.03,,,0.03,meteohub,2013-09-01 01:37:00,
2013-08-31 21:42:00,74.5,71.4,29.90,NW,323,0.0,4.0,90,0.03,,,0.03,meteohub,2013-09-01 01:42:00,
2013-08-31 21:47:00,74.1,71.2,29.90,NW,323,0.0,2.0,91,0.03,,,0.03,meteohub,2013-09-01 01:47:00,
2013-08-31 21:52:00,73.9,71.1,29.90,NW,323,0.0,1.0,91,0.03,,,0.03,meteohub,2013-09-01 01:52:00,
2013-08-31 21:58:00,73.8,70.9,29.90,NW,323,0.0,1.0,91,0.03,,,0.03,meteohub,2013-09-01 01:58:00,
2013-08-31 22:03:00,73.8,71.6,29.90,NW,323,0.0,0.0,93,0.03,,,0.03,meteohub,2013-09-01 02:03:00,
2013-08-31 22:08:00,73.6,71.4,29.90,NW,323,0.0,0.0,93,0.03,,,0.03,meteohub,2013-09-01 02:08:00,
2013-08-31 22:13:00,73.4,71.2,29.90,NW,323,0.0,0.0,93,0.03,,,0.03,meteohub,2013-09-01 02:13:00,
2013-08-31 22:18:00,73.2,71.1,29.90,NW,323,0.0,0.0,93,0.02,,,0.03,meteohub,2013-09-01 02:18:00,
2013-08-31 22:24:00,73.2,71.4,29.90,NW,323,0.0,0.0,94,0.00,,,0.03,meteohub,2013-09-01 02:24:00,
2013-08-31 22:29:00,73.0,71.2,29.90,NW,323,0.0,0.0,94,0.00,,,0.03,meteohub,2013-09-01 02:29:00,
2013-08-31 22:34:00,73.0,71.6,29.90,NW,323,0.0,0.0,95,0.00,,,0.03,meteohub,2013-09-01 02:34:00,
2013-08-31 22:39:00,73.0,71.6,29.90,NW,323,0.0,0.0,95,0.00,,,0.03,meteohub,2013-09-01 02:39:00,
2013-08-31 22:44:00,72.9,71.4,29.90,NW,323,0.0,0.0,95,0.00,,,0.03,meteohub,2013-09-01 02:44:00,
2013-08-31 22:50:00,72.9,71.4,29.90,NW,323,0.0,0.0,95,0.00,,,0.03,meteohub,2013-09-01 02:50:00,
2013-08-31 22:55:00,72.9,71.4,29.89,NW,323,0.0,0.0,95,0.00,,,0.03,meteohub,2013-09-01 02:55:00,
2013-08-31 23:00:00,72.9,71.4,29.90,NW,323,0.0,0.0,95,0.00,,,0.03,meteohub,2013-09-01 03:00:00,
2013-08-31 23:05:00,72.7,71.2,29.89,NW,323,0.0,0.0,95,0.00,,,0.03,meteohub,2013-09-01 03:05:00,
2013-08-31 23:10:00,72.7,71.2,29.89,NW,323,0.0,0.0,95,0.00,,,0.03,meteohub,2013-09-01 03:10:00,
2013-08-31 23:16:00,72.7,71.2,29.89,NW,323,0.0,0.0,95,0.00,,,0.03,meteohub,2013-09-01 03:16:00,
2013-08-31 23:21:00,72.7,71.4,29.89,NW,323,0.0,0.0,96,0.00,,,0.03,meteohub,2013-09-01 03:21:00,
2013-08-31 23:26:00,72.7,71.4,29.89,NW,323,0.0,0.0,96,0.00,,,0.03,meteohub,2013-09-01 03:26:00,
2013-08-31 23:31:00,72.7,71.4,29.89,NW,323,0.0,0.0,96,0.00,,,0.03,meteohub,2013-09-01 03:31:00,
2013-08-31 23:37:00,72.5,71.2,29.89,NW,323,0.0,0.0,96,0.00,,,0.03,meteohub,2013-09-01 03:37:00,
2013-08-31 23:42:00,72.5,71.2,29.89,NW,323,0.0,0.0,96,0.00,,,0.03,meteohub,2013-09-01 03:42:00,
2013-08-31 23:47:00,72.5,71.6,29.88,NW,323,0.0,0.0,97,0.00,,,0.03,meteohub,2013-09-01 03:47:00,
2013-08-31 23:52:00,72.5,71.6,29.88,NW,323,0.0,0.0,97,0.00,,,0.03,meteohub,2013-09-01 03:52:00,
2013-08-31 23:57:00,72.3,71.4,29.88,NW,323,0.0,0.0,97,0.00,,,0.03,meteohub,2013-09-01 03:57:00,